| time (UTC) | temp C | wind direction | speed KPH | gust KPH | rain 1hr cm | rain 24hr cm | rain mn cm | humidity % | barometer mb |
| 20260903080013 | 17 | 101 | 0.0 | 0.0 | 0.00 | 0.00 | 0.00 | 92 | 1019.9 |
| 20260903074511 | 16 | 101 | 0.0 | 0.0 | 0.00 | 0.00 | 0.00 | 93 | 1020.3 |
| 20260903073009 | 16 | 101 | 0.0 | 0.0 | 0.00 | 0.00 | 0.00 | 93 | 1020.2 |
| 20260903071509 | 16 | 101 | 0.0 | 0.0 | 0.00 | 0.00 | 0.00 | 93 | 1020.5 |
| 20260903070007 | 16 | 101 | 0.0 | 0.0 | 0.00 | 0.00 | 0.00 | 93 | 1020.6 |
| 20260903064504 | 16 | 70 | 0.0 | 0.0 | 0.00 | 0.00 | 0.00 | 93 | 1021.1 |
| 20260903063001 | 16 | 70 | 0.0 | 0.0 | 0.00 | 0.00 | 0.00 | 93 | 1021.7 |
| 20260903061600 | 16 | 70 | 0.0 | 0.0 | 0.00 | 0.00 | 0.00 | 93 | 1022.3 |
| 20260903060058 | 16 | 70 | 0.0 | 0.0 | 0.00 | 0.00 | 0.00 | 93 | 1022.5 |
| 20260903054556 | 16 | 70 | 0.0 | 0.0 | 0.00 | 0.00 | 0.00 | 93 | 1022.4 |
| 20260903053113 | 16 | 70 | 0.0 | 0.0 | 0.00 | 0.00 | 0.00 | 93 | 1022.6 |
| 20260903051554 | 16 | 70 | 0.0 | 0.0 | 0.00 | 0.00 | 0.00 | 93 | 1022.6 |
| 20260903044559 | 16 | 70 | 0.0 | 0.0 | 0.00 | 0.00 | 0.00 | 93 | 1022.7 |
| 20260903043106 | 16 | 70 | 0.0 | 0.0 | 0.00 | 0.00 | 0.00 | 93 | 1022.7 |
| 20260903041554 | 16 | 70 | 0.0 | 0.0 | 0.00 | 0.00 | 0.00 | 93 | 1022.9 |
| 20260903040049 | 16 | 70 | 0.0 | 0.0 | 0.00 | 0.00 | 0.00 | 93 | 1023.0 |
| 20260903034544 | 16 | 70 | 0.0 | 0.0 | 0.00 | 0.00 | 0.00 | 93 | 1023.2 |
| 20260903033043 | 16 | 70 | 0.0 | 0.0 | 0.00 | 0.00 | 0.00 | 93 | 1023.9 |
| 20260903031543 | 16 | 70 | 0.0 | 0.0 | 0.00 | 0.00 | 0.00 | 93 | 1023.7 |
| 20260903030043 | 16 | 70 | 0.0 | 0.0 | 0.00 | 0.00 | 0.00 | 93 | 1023.7 |
| 20260903024541 | 16 | 70 | 0.0 | 0.0 | 0.00 | 0.00 | 0.00 | 93 | 1023.6 |
| 20260903023040 | 16 | 70 | 0.0 | 0.0 | 0.00 | 0.00 | 0.00 | 93 | 1023.6 |
| 20260903021548 | 16 | 70 | 0.0 | 0.0 | 0.00 | 0.00 | 0.00 | 92 | 1023.7 |
| 20260903020039 | 16 | 70 | 0.0 | 0.0 | 0.00 | 0.00 | 0.00 | 92 | 1024.0 |
| 20260903014538 | 16 | 70 | 0.0 | 0.0 | 0.00 | 0.00 | 0.00 | 92 | 1024.3 |
| 20260903013037 | 16 | 70 | 0.0 | 0.0 | 0.00 | 0.00 | 0.00 | 92 | 1023.8 |
| 20260903011538 | 16 | 70 | 0.0 | 0.0 | 0.00 | 0.00 | 0.00 | 92 | 1023.9 |
| 20260903010037 | 16 | 99 | 0.0 | 0.0 | 0.00 | 0.00 | 0.00 | 91 | 1023.8 |
| 20260903004537 | 17 | 100 | 0.0 | 0.0 | 0.00 | 0.00 | 0.00 | 91 | 1024.0 |
| 20260903003036 | 17 | 100 | 0.0 | 0.0 | 0.00 | 0.00 | 0.00 | 91 | 1024.2 |
| 20260903001535 | 17 | 103 | 0.0 | 0.0 | 0.00 | 0.00 | 0.00 | 91 | 1024.2 |
| 20260903000036 | 17 | 104 | 0.0 | 0.0 | 0.00 | 0.00 | 0.00 | 91 | 1024.3 |
| 20260902234534 | 17 | 51 | 0.0 | 0.0 | 0.00 | 0.00 | 0.00 | 90 | 1024.6 |
| 20260902233035 | 17 | 51 | 0.0 | 0.0 | 0.00 | 0.00 | 0.00 | 90 | 1024.9 |
| 20260902231535 | 17 | 51 | 0.0 | 0.0 | 0.00 | 0.00 | 0.00 | 88 | 1024.8 |
| 20260902230034 | 17 | 98 | 0.0 | 0.0 | 0.00 | 0.00 | 0.00 | 88 | 1024.9 |
| 20260902224539 | 17 | 95 | 0.0 | 0.0 | 0.00 | 0.00 | 0.00 | 87 | 1025.0 |
| 20260902223033 | 18 | 91 | 0.0 | 0.0 | 0.00 | 0.00 | 0.00 | 85 | 1025.3 |
| 20260902221539 | 18 | 73 | 0.0 | 0.0 | 0.00 | 0.00 | 0.00 | 84 | 1025.4 |
| 20260902220042 | 18 | 89 | 0.0 | 0.0 | 0.00 | 0.00 | 0.00 | 81 | 1025.6 |
| 20260902214532 | 19 | 102 | 0.0 | 0.0 | 0.00 | 0.00 | 0.00 | 79 | 1025.5 |
| 20260902213030 | 19 | 115 | 0.0 | 0.0 | 0.00 | 0.00 | 0.00 | 77 | 1025.5 |
| 20260902211529 | 20 | 96 | 0.0 | 0.0 | 0.00 | 0.00 | 0.00 | 76 | 1025.2 |
| 20260902210049 | 20 | 104 | 0.0 | 0.0 | 0.00 | 0.00 | 0.00 | 78 | 1025.2 |
| 20260902204533 | 20 | 92 | 0.0 | 0.0 | 0.00 | 0.00 | 0.00 | 79 | 1025.2 |
| 20260902203027 | 20 | 101 | 0.0 | 0.0 | 0.00 | 0.00 | 0.00 | 77 | 1025.3 |
| 20260902201532 | 20 | 86 | 0.0 | 0.0 | 0.00 | 0.00 | 0.00 | 78 | 1025.6 |
| 20260902200026 | 20 | 105 | 0.0 | 0.0 | 0.00 | 0.00 | 0.00 | 76 | 1025.7 |
| 20260902194532 | 20 | 65 | 0.0 | 0.0 | 0.00 | 0.00 | 0.00 | 75 | 1026.0 |
| 20260902193024 | 20 | 58 | 0.0 | 0.0 | 0.00 | 0.00 | 0.00 | 75 | 1026.2 |
| 20260902191522 | 21 | 338 | 0.0 | 0.0 | 0.00 | 0.00 | 0.00 | 73 | 1026.2 |
| 20260902190030 | 21 | 109 | 0.0 | 0.0 | 0.00 | 0.00 | 0.00 | 76 | 1025.9 |
| 20260902184530 | 20 | 120 | 0.0 | 0.0 | 0.00 | 0.00 | 0.00 | 74 | 1025.7 |
| 20260902183021 | 20 | 101 | 0.0 | 0.0 | 0.00 | 0.00 | 0.00 | 72 | 1025.7 |
| 20260902181521 | 20 | 94 | 0.0 | 0.0 | 0.00 | 0.00 | 0.00 | 76 | 1026.0 |
| 20260902180020 | 20 | 94 | 0.0 | 0.0 | 0.00 | 0.03 | 0.00 | 77 | 1026.3 |
| 20260902174519 | 20 | 96 | 0.0 | 0.0 | 0.00 | 0.03 | 0.00 | 74 | 1026.4 |
| 20260902173019 | 20 | 223 | 0.0 | 0.0 | 0.00 | 0.03 | 0.00 | 74 | 1026.2 |
| 20260902171519 | 20 | 230 | 0.0 | 0.0 | 0.00 | 0.03 | 0.00 | 72 | 1026.4 |
| 20260902170018 | 21 | 262 | 0.0 | 0.0 | 0.00 | 0.03 | 0.00 | 74 | 1026.4 |
| 20260902164517 | 21 | 102 | 0.0 | 0.0 | 0.00 | 0.03 | 0.00 | 75 | 1026.4 |
| 20260902163024 | 21 | 189 | 0.0 | 0.0 | 0.00 | 0.03 | 0.00 | 74 | 1026.3 |
| 20260902161516 | 21 | 335 | 0.0 | 0.0 | 0.00 | 0.03 | 0.00 | 75 | 1026.7 |
| 20260902160014 | 21 | 77 | 0.0 | 0.0 | 0.00 | 0.03 | 0.00 | 77 | 1026.9 |
| 20260902154511 | 20 | 108 | 0.0 | 0.0 | 0.00 | 0.03 | 0.00 | 79 | 1026.9 |
| 20260902153009 | 20 | 119 | 0.0 | 0.0 | 0.00 | 0.03 | 0.00 | 78 | 1027.0 |
| 20260902151516 | 20 | 18 | 0.0 | 0.0 | 0.00 | 0.03 | 0.00 | 81 | 1027.0 |
| 20260902150009 | 20 | 38 | 0.0 | 0.0 | 0.00 | 0.03 | 0.00 | 81 | 1026.9 |
| 20260902144508 | 20 | 233 | 0.0 | 0.0 | 0.00 | 0.03 | 0.00 | 84 | 1026.7 |
| 20260902143100 | 19 | 212 | 0.0 | 0.0 | 0.00 | 0.03 | 0.00 | 85 | 1026.5 |
| 20260902141557 | 18 | 212 | 0.0 | 0.0 | 0.00 | 0.03 | 0.00 | 87 | 1026.3 |
| 20260902140056 | 18 | 326 | 0.0 | 0.0 | 0.00 | 0.03 | 0.00 | 91 | 1026.3 |
| 20260902134552 | 17 | 234 | 0.0 | 0.0 | 0.00 | 0.15 | 0.00 | 93 | 1026.3 |
| 20260902133049 | 17 | 234 | 0.0 | 0.0 | 0.00 | 0.15 | 0.00 | 93 | 1026.3 |
| 20260902131548 | 17 | 19 | 0.0 | 0.0 | 0.00 | 0.15 | 0.00 | 94 | 1026.3 |
| 20260902130049 | 17 | 103 | 0.0 | 0.0 | 0.00 | 0.15 | 0.00 | 94 | 1026.4 |
| 20260902124545 | 17 | 77 | 0.0 | 0.0 | 0.00 | 0.46 | 0.00 | 94 | 1026.2 |
| 20260902123050 | 17 | 86 | 0.0 | 0.0 | 0.00 | 0.46 | 0.00 | 95 | 1026.4 |
| 20260902121543 | 16 | 86 | 0.0 | 0.0 | 0.00 | 0.46 | 0.00 | 95 | 1026.4 |
| 20260902120046 | 16 | 86 | 0.0 | 0.0 | 0.00 | 0.56 | 0.00 | 95 | 1026.4 |
| 20260902114540 | 16 | 86 | 0.0 | 0.0 | 0.00 | 0.56 | 0.00 | 95 | 1026.3 |
| 20260902113046 | 16 | 86 | 0.0 | 0.0 | 0.00 | 0.56 | 0.00 | 95 | 1026.2 |
| 20260902111543 | 16 | 90 | 0.0 | 0.0 | 0.00 | 0.56 | 0.00 | 95 | 1026.1 |
| 20260902110035 | 16 | 90 | 0.0 | 0.0 | 0.00 | 0.56 | 0.00 | 95 | 1025.8 |
| 20260902104540 | 16 | 90 | 0.0 | 0.0 | 0.00 | 0.56 | 0.00 | 95 | 1025.8 |
| 20260902103035 | 16 | 90 | 0.0 | 0.0 | 0.00 | 0.56 | 0.00 | 94 | 1025.7 |
| 20260902101536 | 16 | 87 | 0.0 | 0.0 | 0.00 | 0.56 | 0.00 | 94 | 1025.6 |
| 20260902100032 | 16 | 88 | 0.0 | 0.0 | 0.00 | 0.56 | 0.00 | 94 | 1025.6 |
| 20260902094533 | 16 | 87 | 0.0 | 0.0 | 0.00 | 0.56 | 0.00 | 94 | 1025.4 |
| 20260902093036 | 16 | 87 | 0.0 | 0.0 | 0.00 | 0.56 | 0.00 | 94 | 1025.4 |
| 20260902091529 | 16 | 87 | 0.0 | 0.0 | 0.00 | 0.56 | 0.00 | 94 | 1025.3 |
| 20260902090029 | 16 | 87 | 0.0 | 0.0 | 0.00 | 0.56 | 0.00 | 94 | 1025.1 |
| 20260902084528 | 16 | 87 | 0.0 | 0.0 | 0.00 | 0.56 | 0.00 | 94 | 1025.2 |
| 20260902083028 | 16 | 88 | 0.0 | 0.0 | 0.00 | 0.56 | 0.00 | 94 | 1025.3 |
| 20260902081527 | 16 | 88 | 0.0 | 0.0 | 0.00 | 0.56 | 0.00 | 94 | 1025.3 |